Regional Weather Roundup
Issued by NWS

Home | Current Version | Previous Version | Graphics & Text | Print | Product List | Glossary Off
Versions: 1 2 3 4 5 6 7 8 9 10 11 12 13 14 15 16 17 18 19 20 21 22 23 24 25 26 27 28 29 30 31 32 33 34 35 36 37 38 39 40 41 42 43 44 45 46 47 48 49 50

000
ASUS43 KDMX 010207
RWRIA

WEATHER ROUNDUP FOR IOWA
NATIONAL WEATHER SERVICE DES MOINES IA
900 PM CDT SUN AUG 31 2014

NOTE: "FAIR" INDICATES FEW OR NO CLOUDS BELOW 12,000 FEET WITH NO
SIGNIFICANT WEATHER AND/OR OBSTRUCTIONS TO VISIBILITY.

* - THESE STATIONS ARE NOT NWS STATIONS...THUS NOT UNDER NWS
QUALITY CONTROL.  THEY ALSO DO NOT REPORT WEATHER SUCH
AS PRECIPITATION OR FOG.

IAZ001>003-012>014-020>022-031>034-043>046-010300-
   NORTHWEST IOWA

CITY           SKY/WX    TMP DP  RH WIND       PRES   REMARKS
CARROLL *      RAIN      66  63  88 W15G30    29.75S
CHEROKEE *     CLOUDY    66  66 100 S5        29.65F
DENISON *      LGT RAIN  64  64 100 S7        29.71F
LE MARS *      CLOUDY    70  68  94 VRB3      29.67R
ORANGE CITY *  CLOUDY    68  64  88 CALM      29.67R
SHELDON *      CLOUDY    66  66 100 SE7       29.68R
SIOUX CITY       N/A     67  64  90 S10       29.65R
SPENCER        LGT RAIN  67  65  93 S13       29.67R
STORM LAKE *   CLOUDY    66  66 100 SE9       29.67R
$$

IAZ055>058-069>071-079>083-090>094-010300-
   SOUTHWEST IOWA

CITY           SKY/WX    TMP DP  RH WIND       PRES   REMARKS
ATLANTIC *     RAIN      68  66  94 NW9G18    29.75R
AUDUBON *      LGT RAIN  70  66  88 W7        29.77R
CLARINDA *     LGT RAIN  79  73  83 W16       29.74R HX  82
COUNCIL BLFS * LGT RAIN  70  70 100 W7        29.75R
CRESTON *      CLOUDY    77  72  83 S12       29.71R
HARLAN  *      LGT RAIN  68  66  94 N6        29.77R
LAMONI         CLOUDY    79  69  71 S7        29.74R HX  81
RED OAK *      CLOUDY    72  68  88 SW20G32   29.72R FOG
SHENANDOAH *   LGT RAIN  70  66  88 E21       29.73R VSB 1/4
$$

IAZ047>049-059>061-072>074-084-010300-
   CENTRAL IOWA

CITY           SKY/WX    TMP DP  RH WIND       PRES   REMARKS
AMES           TSTM      70  64  81 W25G46    29.78R SQUALL
ANKENY *       CLOUDY    79  73  83 SE12G17   29.68F HX  82
CHARITON *     CLOUDY    79  68  69 S14G22    29.73S HX  81
DES MOINES     TSTM      80  70  71 S17       29.68R HX  83
GRINNELL*      CLOUDY    78  69  73 SE14G20   29.74R HX  80
KNOXVILLE *    CLOUDY    79  70  73 S13G21    29.70F HX  81
MARSHALLTOWN   CLOUDY    79  70  74 SE13      29.71R HX  82
PELLA *        CLOUDY    79  70  73 SE10      29.73F HX  81
PERRY *        HVY RAIN  65  63  94 NW15G37   29.77R
$$

IAZ004>006-015-016-023>025-035-036-010300-
   NORTH CENTRAL IOWA

CITY           SKY/WX    TMP DP  RH WIND       PRES   REMARKS
ALGONA *       DRIZZLE   64  64 100 S10G23    29.69F
CLARION *      HVY RAIN  64  63  94 NW15G36   29.79R
ESTHERVILLE    CLOUDY    65  64  97 E8        29.62F
FORT DODGE *   CLOUDY    63  61  94 CALM      29.73S THUNDER
MASON CITY     TSTM      69  65  86 MISG      29.83R FOG
FOREST CITY *  CLOUDY    63  63 100 W17G36      N/A  VSB 1/2
IOWA FALLS *     N/A     76  71  82 SE10      29.72S
$$

IAZ007>011-017>019-026>030-037>042-050>054-066-010300-
   NORTHEAST IOWA

CITY           SKY/WX    TMP DP  RH WIND       PRES   REMARKS
CEDAR RAPIDS   PTCLDY    79  72  79 S13G21    29.76R HX  82
CHARLES CITY * CLOUDY    73  72  94 SE7       29.73R
CLINTON *      CLEAR     75  70  83 SE7       29.83R
DECORAH *      MOCLDY    73  72  94 VRB7G13   29.73S
DUBUQUE        CLEAR     73  68  84 S12       29.79S
MONTICELLO *   CLEAR     75  72  88 SE7       29.77S
OELWEIN *      CLOUDY    77  72  83 S12       29.75R
WATERLOO       CLOUDY    79  71  76 S17       29.71R HX  82
$$

IAZ064-065-067-068-078-010300-
   EAST CENTRAL IOWA

CITY           SKY/WX    TMP DP  RH WIND       PRES   REMARKS
DAVENPORT      CLEAR     78  68  71 S12       29.81R HX  80
IOWA CITY      PTCLDY    77  72  84 S9        29.79R
MT. PLEASANT * CLEAR     77  69  74 S7        29.81R
MUSCATINE *    CLEAR     79  70  73 S8        29.80R HX  81
QUAD CITIES    CLEAR     77  69  76 S12       29.79S
$$

IAZ062-063-075>077-085>089-095>099-010300-
   SOUTHEAST IOWA

CITY           SKY/WX    TMP DP  RH WIND       PRES   REMARKS
BURLINGTON     CLEAR     78  70  76 S8        29.81S HX  80
FAIRFIELD *    MOCLDY    81  70  69 S14       29.79R HX  84
FORT MADISON * CLEAR     81  72  74 SE8       29.82R HX  84
KEOKUK *       CLEAR     81  70  69 SE10      29.80R HX  84
OSKALOOSA *      N/A     76  71  84 SE10      29.76R
CENTERVILLE *    N/A     77  68  73 SE8       29.77R
OTTUMWA        PTCLDY    79  69  71 SE15      29.76R HX  81
WASHINGTON *   CLEAR     77  72  83 S12       29.80R
$$

ABBREVIATIONS USED IN REMARKS
   TC - TEMPERATURES IN CELSIUS
  WCI - WIND CHILL INDEX
   HX - HEAT INDEX
  VSB - VISIBILITY
$$



USA.gov is the U.S. government's official web portal to all federal, state and local government web resources and services.